CZ-6A DEB, 55884

Orbit data source: Space-Track

CZ-6A DEB, 55884 is space debris in SSO originally from a launch on Fri, 11 Nov 2022 UTC launched from the Taiyaun Space Center, China (TSC). Debris objects in space refer to the collection of defunct objects orbiting the Earth. Examples of debris include non-operational satellites, rocket bodies, and fragments generated from explosions, collisions, or faulty payload assembly.

Loading next visibility...
Identifier
55884, 2022-151AAG
Orbit
SSO
Last TLE update
3 days ago
Origin
Manufacturer
SAST
Mission
Spacecraft
Bus & Motor
Unknown
Mass
Unknown
Launch date (UTC)
2022-11-11 (3 years ago)
Launch vehicle
Unknown
Launch site
Taiyaun Space Center, China (TSC)
Object type
Payload
Rocket body
Debris
Shape & HBR
Unknown
Radar Cross Section
Small (<0.1 m²)

Expand to show TLE details & history

TLE from 3 days ago
0 CZ-6A DEB
1 55884U 22151AAG 25130.94462962  .00002609  00000-0  13884-2 0  9997
2 55884  98.8293 133.8244 0052869  39.5806 320.9209 14.13576564113863
Epoch: 2025-05-10T22:40Z
Definitive object data (Epoch: 2025-05-10T22:40:15.999Z)
Latitude
0.00007°
Longitude
-75.22142°
Altitude
820.482 km
Speed
7.458 km/s
True Right ascension
08h 55m 17s
True Declination
0° 00' 00"
Sunlit
Object was in daylight at TLE epoch
Visualization TLE readout
Latitude
-10.38533°
Longitude
105.91731°
Altitude
887.509 km
Speed
7.39 km/s
Apparent Right ascension
18h 28m 47s
Apparent Declination
-34° 23' 26"
Sunlit
Object is in daylight
Visualization observer readout
Local Sidereal Time
02:15:31
Azimuth
255.154° W
Elevation
-40.288°
Doppler factor
1
Orbital elements
Apogee altitude
882.516 km
Perigee altitude
806.147 km
Semi-major axis
7,222.468 km
Eccentricity
0.0052869
Inclination
98.8293°
RAAN
133.8244°
Arg. of periapsis
39.5806°
True anomaly
320.53702°
Mean anomaly
320.9209°
Eccentric anomaly
320.72916°
Mean motion
3.53602 °/min
BSTAR
0.0013884
Orbital period
101.81 mins
Loading maneuver chart data...
Loading SW <> Apogee altitude chart data...
Loading historical data...
Loading historical data...
Loading historical data...
Loading historical data...
Loading historical data...
Loading historical data...
Loading historical data...

CZ-6A DEB Visibility forecast

Observer location: undefined°, undefined°

Span
Click to sort rows by Start time (UTC) header in descending order
Start Az.
Max El. time (UTC)
Max El. Az.
Max El.
End time (UTC)
End Az.
9 mins2025-05-13 23:50:02.978Z152.62° SSE2025-05-13 23:55:02.978Z42.996° NE41.506°2025-05-13 23:59:02.978Z353.721° N
4 mins2025-05-14 01:34:02.978Z249.039° W2025-05-14 01:36:02.978Z273.985° WNW13.882°2025-05-14 01:38:02.978Z297.406° NW
8 mins2025-05-14 12:13:02.978Z46.963° ENE2025-05-14 12:16:02.978Z91.909° ESE26.74°2025-05-14 12:21:02.978Z156.757° SSE
8 mins2025-05-14 13:53:02.978Z349.555° N2025-05-14 13:57:02.978Z287.547° WNW29.917°2025-05-14 14:01:02.978Z232.308° WSW
|